Total_Precipitation_Accumulation
0.01 0.01 0.00 0.00 0.00 0.00 0.00 0.00 0.00 0.00 0.00 0.00 0.00 0.00 0.00 0.00 0.00 0.00 0.00 0.00 0.00 0.00
0.00 0.00 0.00 0.00 0.00 0.00 0.00 0.00 0.00 0.00 0.00 0.00 0.00 0.00 0.00 0.00 0.00 0.00 0.00 0.00 0.00 0.00
0.00 0.00 0.00 0.00 0.00 0.00 0.00 0.01 0.01 0.00 0.00 0.00 0.00 0.00 0.00 0.00 0.00 0.00 0.00 0.00 0.00 0.00
0.00 0.00 0.00 0.00 0.00 0.00 0.00 0.00 0.01 0.02 0.03 0.01 0.00 0.00 0.00 0.00 0.00 0.00 0.00 0.00 0.00 0.00
0.00 0.00 0.00 0.00 0.00 0.00 0.00 0.00 0.00 0.00 0.00 0.01 0.00 0.00 0.00 0.00 0.00 0.00 0.00 0.00 0.00 0.00
0.00 0.00 0.00 0.00 0.00 0.00 0.00 0.00 0.00 0.00 0.00 0.00 0.00 0.00 0.00 0.01 0.01 0.01 0.01 0.01 0.00 0.01
0.00 0.00 0.00 0.00 0.00 0.00 0.00 0.01 0.01 0.02 0.02 0.02 0.01 0.01 0.01 0.01 0.01 0.01 0.01 0.01 0.01 0.01
0.00 0.00 0.00 0.00 0.00 0.00 0.01 0.03 0.06 0.06 0.05 0.04 0.02 0.01 0.01 0.01 0.01 0.01 0.01 0.02 0.02 0.01
0.00 0.00 0.00 0.00 0.00 0.00 0.02 0.03 0.02 0.02 0.02 0.02 0.01 0.01 0.02 0.02 0.01 0.01 0.03 0.03 0.02 0.00
0.00 0.00 0.00 0.00 0.00 0.00 0.01 0.02 0.03 0.04 0.04 0.05 0.03 0.05 0.08 0.06 0.05 0.04 0.04 0.02 0.01 0.00
0.00 0.00 0.00 0.00 0.00 0.01 0.04 0.08 0.12 0.16 0.19 0.25 0.21 0.21 0.16 0.10 0.06 0.04 0.02 0.00 0.00 0.00
0.00 0.00 0.00 0.00 0.01 0.04 0.11 0.20 0.29 0.31 0.35 0.30 0.25 0.21 0.13 0.06 0.03 0.01 0.01 0.00 0.00 0.00
0.00 0.00 0.00 0.02 0.05 0.12 0.20 0.31 0.35 0.35 0.30 0.18 0.19 0.20 0.11 0.04 0.01 0.01 0.00 0.00 0.00 0.00
0.02 0.03 0.08 0.17 0.25 0.33 0.41 0.41 0.36 0.29 0.23 0.16 0.15 0.16 0.10 0.03 0.01 0.00 0.00 0.00 0.00 0.00